History for KNYNEWYO585

Bryant Park, New York, NY — Current Conditions
Daily Summary for August 22, 2018
  Current: High: Low: Average:
Temperature: 73.2°F 73.4°F 72.3°F 72.9°F
Dew Point: 71.8°F 71.8°F 69.1°F 70.0°F
Humidity: 95% 95% 88% 91%
Wind Speed: 0.0mph 8.1mph - 0.1mph
Wind Gust: 0.0mph 14.8mph - -
Wind: SW - - SW
Pressure: 29.80in 29.93in 29.80in -
Precipitation: 0.05in      
Solar Radiation: 0 watts/m^2      
UV Index: 0.0      
Statistics for the rest of the month
    High: Low: Average:
Temperature:   95.2°F 68.5°F 80.5°F
Dew Point:   77.4°F 55.6°F 67.4°F
Humidity:   95.0% 30.0% 68.6%
Wind Speed:   30.9mph from the North - 1.9mph
Wind Gust:   36.9mph from the ESE - -
Wind:   - - SSE
Pressure:   30.24in 29.80in -
Precipitation:   0.67in    
KNYNEWYO585 Weather Graph
Tabular Data for August 22, 2018
Time Temp. Dew Point Pressure Wind Gust Humidity Rainfall Solar Radiation
00:04 73.4°F 69.6°F 29.93in 0mph 88% 0in 0.00 watts/m^2
00:09 73.2°F 69.4°F 29.93in 0mph 88% 0in 0.00 watts/m^2
00:14 73°F 69.6°F 29.92in 0mph 89% 0in 0.00 watts/m^2
00:19 72.9°F 69.4°F 29.92in 0mph 89% 0in 0.00 watts/m^2
00:24 72.7°F 69.3°F 29.91in 0mph 89% 0in 0.00 watts/m^2
00:29 72.5°F 69.1°F 29.91in 0mph 89% 0in 0.00 watts/m^2
00:34 72.5°F 69.1°F 29.91in 0mph 89% 0in 0.00 watts/m^2
00:39 72.5°F 69.1°F 29.90in 0mph 89% 0in 0.00 watts/m^2
00:44 72.3°F 69.3°F 29.89in 0mph 90% 0in 0.00 watts/m^2
00:49 72.3°F 69.3°F 29.89in 0mph 90% 0in 0.00 watts/m^2
00:54 72.3°F 69.3°F 29.89in 0mph 90% 0.02in 0.00 watts/m^2
00:59 72.3°F 69.3°F 29.88in 0mph 90% 0.02in 0.00 watts/m^2
01:04 72.5°F 69.4°F 29.88in 0mph 90% 0in 0.00 watts/m^2
01:09 72.5°F 69.8°F 29.87in 0mph 91% 0in 0.00 watts/m^2
01:14 72.5°F 69.8°F 29.88in 7.4mph 91% 0in 0.00 watts/m^2
01:19 72.5°F 69.8°F 29.86in 0mph 91% 0.02in 0.00 watts/m^2
01:24 72.5°F 69.8°F 29.88in 0mph 91% 0.05in 0.00 watts/m^2
01:29 72.5°F 69.8°F 29.87in 0mph 91% 0.14in 0.00 watts/m^2
01:34 72.7°F 70°F 29.87in 0mph 91% 0.14in 0.00 watts/m^2
01:39 72.5°F 69.8°F 29.88in 7.4mph 91% 0.05in 0.00 watts/m^2
01:44 72.5°F 69.8°F 29.86in 0mph 91% 0.02in 0.00 watts/m^2
01:49 72.5°F 70.2°F 29.85in 0mph 92% 0.02in 0.00 watts/m^2
01:54 72.5°F 70.2°F 29.83in 0mph 92% 0.02in 0.00 watts/m^2
01:59 72.5°F 70.2°F 29.83in 0mph 92% 0in 0.00 watts/m^2
02:04 72.7°F 70.3°F 29.81in 0mph 92% 0in 0.00 watts/m^2
02:09 72.7°F 70.3°F 29.81in 0mph 92% 0in 0.00 watts/m^2
02:14 72.7°F 70.3°F 29.80in 0mph 92% 0in 0.00 watts/m^2
02:19 72.7°F 70.3°F 29.80in 0mph 92% 0in 0.00 watts/m^2
02:24 72.9°F 70.7°F 29.80in 0mph 93% 0in 0.00 watts/m^2
02:29 72.9°F 70.7°F 29.81in 0mph 93% 0in 0.00 watts/m^2
02:34 72.9°F 70.7°F 29.80in 0mph 93% 0in 0.00 watts/m^2
02:39 73°F 70.9°F 29.81in 0mph 93% 0in 0.00 watts/m^2
02:44 73°F 70.9°F 29.80in 0mph 93% 0in 0.00 watts/m^2
02:49 73°F 71.6°F 29.81in 0mph 95% 0in 0.00 watts/m^2
02:54 73.2°F 71.8°F 29.80in 0mph 95% 0in 0.00 watts/m^2
02:59 73.2°F 71.8°F 29.80in 0mph 95% 0in 0.00 watts/m^2
Comma Delimited File
Powered by Weather Underground, Inc.